Weather History for Fort Smith, AR

Change the Weather History Date:

Thursday, December 6, 2012

  Actual Average Record
Temperature  
Mean Temperature 55 °F 43 °F  
Max Temperature 68 °F 54 °F 77 °F (1932)
Min Temperature 41 °F 33 °F 9 °F (1950)
Degree Days  
Heating Degree Days 10 22  
Month to date heating degree days 36 125  
Since 1 July heating degree days 548 690  
Growing Degree Days 4 (Base 50)    
Moisture  
Dew Point 43 °F    
Average Humidity 66    
Maximum Humidity 86    
Minimum Humidity 45    
Precipitation  
Precipitation 0.00 in 0.12 in 2.25 in (1935)
Month to date precipitation 0.10 0.75  
Year to date precipitation 31.29 42.92  
Sea Level Pressure  
Sea Level Pressure 29.95 in    
Wind  
Wind Speed 5 mph (East)    
Max Wind Speed 12 mph    
Max Gust Speed 16 mph    
Visibility 10 miles    
Events      
T = Trace of Precipitation, MM = Missing Value Source: NWS Daily Summary

Daily Weather History Graph

Daily Weather History Graph

Search for Another Location

Airport:

Trip Planner

Search our weather history database for the weather conditions in past years. The results will help you decide how hot, cold, wet, or windy it might be!

Date:

Astronomy

Dec. 06, 2012 Rise Set
Actual Time 7:12 AM CST 5:04 PM CST
Civil Twilight 6:44 AM CST 5:32 PM CST
Nautical Twilight 6:12 AM CST 6:04 PM CST
Astronomical Twilight 5:42 AM CST 6:35 PM CST
Moon No Moon Rise 12:18 PM CST (12/6)
Length of Visible Light 10h 48m
Length of Day
9h 52m
Waning Gibbous, 49% of the Moon is Illuminated
Dec 6
Waning Gibbous
Dec 13
New
Dec 19
First Quarter
Dec 28
Full
Jan 4
Last Quarter

Hourly Weather History & Observations

Time (CST) Temp. Windchill Dew Point Humidity Pressure Visibility Wind Dir Wind Speed Gust Speed Precip Events Conditions
12:53 AM 46.0 °F 43.9 °F 37.9 °F 73% 30.07 in 10.0 mi NE 4.6 mph - N/A   Clear
1:53 AM 46.0 °F 44.8 °F 37.9 °F 73% 30.06 in 10.0 mi NE 3.5 mph - N/A   Clear
2:53 AM 44.1 °F 40.8 °F 37.0 °F 76% 30.04 in 10.0 mi ENE 5.8 mph - N/A   Clear
3:53 AM 43.0 °F 40.3 °F 37.0 °F 80% 30.02 in 10.0 mi NE 4.6 mph - N/A   Clear
4:53 AM 43.0 °F 41.3 °F 37.0 °F 80% 30.01 in 10.0 mi ENE 3.5 mph - N/A   Clear
5:53 AM 43.0 °F 40.3 °F 36.0 °F 76% 30.01 in 10.0 mi ENE 4.6 mph - N/A   Clear
6:53 AM 42.1 °F 37.7 °F 37.0 °F 82% 30.00 in 10.0 mi ENE 6.9 mph - N/A   Clear
7:53 AM 45.0 °F 41.8 °F 39.0 °F 80% 30.00 in 10.0 mi NE 5.8 mph - N/A   Clear
8:53 AM 48.9 °F - 41.0 °F 74% 30.01 in 10.0 mi ENE 8.1 mph - N/A   Clear
9:53 AM 54.0 °F - 44.1 °F 69% 30.00 in 10.0 mi ESE 4.6 mph - N/A   Clear
10:53 AM 59.0 °F - 46.0 °F 62% 29.99 in 10.0 mi ESE 3.5 mph - N/A   Clear
11:53 AM 61.0 °F - 46.0 °F 58% 29.94 in 10.0 mi Variable 3.5 mph - N/A   Clear
12:53 PM 63.0 °F - 46.0 °F 54% 29.92 in 10.0 mi East 3.5 mph - N/A   Clear
1:53 PM 66.9 °F - 46.0 °F 47% 29.88 in 10.0 mi ESE 10.4 mph - N/A   Clear
2:53 PM 68.0 °F - 46.0 °F 45% 29.86 in 10.0 mi Variable 4.6 mph - N/A   Clear
3:53 PM 66.0 °F - 46.0 °F 48% 29.85 in 10.0 mi SE 8.1 mph - N/A   Clear
4:53 PM 63.0 °F - 48.0 °F 58% 29.85 in 10.0 mi SE 6.9 mph - N/A   Clear
5:53 PM 59.0 °F - 48.0 °F 67% 29.86 in 10.0 mi East 4.6 mph - N/A   Clear
6:53 PM 57.0 °F - 48.0 °F 72% 29.88 in 10.0 mi SE 5.8 mph - N/A   Clear
7:53 PM 55.9 °F - 48.0 °F 75% 29.89 in 10.0 mi SE 5.8 mph - N/A   Clear
8:53 PM 54.0 °F - 48.0 °F 80% 29.91 in 10.0 mi Calm Calm - N/A   Clear
9:53 PM 50.0 °F - 46.0 °F 86% 29.91 in 10.0 mi Calm Calm - N/A   Clear
10:53 PM 48.9 °F - 45.0 °F 86% 29.91 in 10.0 mi Calm Calm - N/A   Clear
11:53 PM 48.0 °F - 45.0 °F 89% 29.91 in 9.0 mi Calm Calm - N/A   Clear